Weather History for Cut Bank, MT

Change the Weather History Date:

Saturday, February 15, 2014

  Actual Average Record
Temperature  
Mean Temperature 37 °F 24 °F  
Max Temperature 45 °F 35 °F 56 °F (1934)
Min Temperature 28 °F 13 °F -47 °F (1936)
Degree Days  
Heating Degree Days 28 41  
Month to date heating degree days 867 625  
Since 1 July heating degree days 5575 5543  
Cooling Degree Days 0 0  
Month to date cooling degree days 0 0  
Year to date cooling degree days 0 0  
Moisture  
Dew Point 21 °F    
Average Humidity 57    
Maximum Humidity 82    
Minimum Humidity 31    
Precipitation  
Precipitation 0.00 in 0.01 in 0.34 in (1986)
Month to date precipitation 0.11 0.10  
Year to date precipitation 0.93 0.30  
Snow  
Snow 0.00 in - - ()
Snow Depth T in    
Sea Level Pressure  
Sea Level Pressure 29.76 in    
Wind  
Wind Speed 13 mph (SSW)    
Max Wind Speed 32 mph    
Max Gust Speed 40 mph    
Visibility 10 miles    
Events      
T = Trace of Precipitation, MM = Missing Value Source: NWS Daily Summary

Daily Weather History Graph

Daily Weather History Graph

Search for Another Location

Airport:

Trip Planner

Search our weather history database for the weather conditions in past years. The results will help you decide how hot, cold, wet, or windy it might be!

Date:

Astronomy

Feb. 15, 2014 Rise Set
Actual Time 7:36 AM MST 5:51 PM MST
Civil Twilight 7:04 AM MST 6:23 PM MST
Nautical Twilight 6:27 AM MST 7:00 PM MST
Astronomical Twilight 5:51 AM MST 7:36 PM MST
Moon 7:03 PM MST (2/15) 7:30 AM MST (2/15)
Length of Visible Light 11h 18m
Length of Day
10h 14m
Waxing Gibbous, 99% of the Moon is Illuminated
Feb 15
Waxing Gibbous
Feb 22
Last Quarter
Mar 1
New
Mar 8
First Quarter
Mar 16
Full

Hourly Weather History & Observations

Time (MST) Temp. Windchill Dew Point Humidity Pressure Visibility Wind Dir Wind Speed Gust Speed Precip Events Conditions
12:56 AM 34.0 °F 21.3 °F 24.1 °F 67% 29.74 in 10.0 mi West 25.3 mph 34.5 mph N/A   Clear
1:56 AM 34.0 °F 21.5 °F 23.0 °F 64% 29.76 in 10.0 mi West 24.2 mph 33.4 mph N/A   Clear
2:56 AM 33.1 °F 20.9 °F 21.9 °F 64% 29.78 in 10.0 mi West 21.9 mph - N/A   Clear
3:56 AM 28.0 °F 17.5 °F 21.0 °F 75% 29.83 in 10.0 mi WSW 12.7 mph - N/A   Clear
4:56 AM 30.0 °F 19.5 °F 19.9 °F 66% 29.87 in 10.0 mi West 13.8 mph - N/A   Clear
5:56 AM 32.0 °F 20.1 °F 19.0 °F 59% 29.89 in 10.0 mi West 19.6 mph - N/A   Clear
6:56 AM 32.0 °F 19.8 °F 19.0 °F 59% 29.90 in 10.0 mi West 20.7 mph - N/A   Clear
7:56 AM 32.0 °F 20.5 °F 19.9 °F 61% 29.91 in 10.0 mi West 18.4 mph - N/A   Clear
8:56 AM 34.0 °F 26.0 °F 21.0 °F 59% 29.93 in 10.0 mi West 10.4 mph - N/A   Clear
9:56 AM 37.0 °F 31.0 °F 19.9 °F 50% 29.92 in 10.0 mi SW 8.1 mph - N/A   Clear
10:56 AM 41.0 °F 34.3 °F 18.0 °F 40% 29.90 in 10.0 mi SW 11.5 mph - N/A   Clear
11:56 AM 43.0 °F 38.8 °F 18.0 °F 37% 29.89 in 10.0 mi SSW 6.9 mph - N/A   Clear
12:56 PM 44.1 °F 38.6 °F 17.1 °F 34% 29.85 in 10.0 mi South 10.4 mph - N/A   Clear
1:56 PM 44.1 °F 37.7 °F 16.0 °F 32% 29.82 in 10.0 mi South 12.7 mph - N/A   Clear
2:56 PM 43.0 °F 38.2 °F 16.0 °F 34% 29.79 in 10.0 mi SSE 8.1 mph - N/A   Clear
3:56 PM 42.1 °F 37.7 °F 19.0 °F 40% 29.77 in 10.0 mi ESE 6.9 mph - N/A   Clear
4:56 PM 37.9 °F 32.1 °F 21.0 °F 51% 29.74 in 10.0 mi SE 8.1 mph - N/A   Clear
5:56 PM 36.0 °F 29.0 °F 21.9 °F 57% 29.71 in 10.0 mi SE 9.2 mph - N/A   Clear
6:56 PM 36.0 °F 28.5 °F 24.1 °F 62% 29.67 in 10.0 mi SSE 10.4 mph - N/A   Overcast
7:56 PM 36.0 °F 29.0 °F 25.0 °F 64% 29.63 in 10.0 mi SE 9.2 mph - N/A   Overcast
8:56 PM 35.1 °F 27.9 °F 25.0 °F 67% 29.58 in 10.0 mi SSE 9.2 mph - N/A   Partly Cloudy
9:56 PM 32.0 °F 24.2 °F 26.1 °F 79% 29.52 in 10.0 mi South 9.2 mph - N/A   Clear
10:56 PM 33.1 °F 26.1 °F 28.0 °F 82% 29.48 in 10.0 mi South 8.1 mph - N/A   Partly Cloudy
11:56 PM 32.0 °F 26.4 °F 28.9 °F 88% 29.45 in 10.0 mi SE 5.8 mph - N/A   Clear